Regional Weather Roundup
Issued by NWS

Home | Current Version | Previous Version | Graphics & Text | Print | Product List | Glossary On
Versions: 1 2 3 4 5 6 7 8 9 10 11 12 13 14 15 16 17 18 19 20 21 22 23 24 25 26 27 28 29 30 31 32 33 34 35 36 37 38 39 40 41 42 43 44 45 46 47 48 49 50
000
ASUS43 KMKX 230721
RWRWI

WISCONSIN REGIONAL WEATHER ROUNDUP
NATIONAL WEATHER SERVICE MILWAUKEE/SULLIVAN WI
100 AM CST THU NOV 23 2017

NOTE: "FAIR" INDICATES FEW OR NO CLOUDS BELOW 12,000 FEET WITH NO
SIGNIFICANT WEATHER AND/OR OBSTRUCTIONS TO VISIBILITY.

WIZ001-002-006>008-014>016-023>028-230800-
NORTHWEST WISCONSIN

CITY           SKY/WX    TMP DP  RH WIND       PRES   REMARKS
SUPERIOR ARPT  CLOUDY    24  21  89 CALM      29.96F
ASHLAND        CLOUDY    26  18  71 SW7       29.97F WCI  18
HAYWARD        CLOUDY    25  19  78 CALM      29.95F
SIREN          CLOUDY    27  19  72 CALM      29.95F
CUMBERLAND     CLOUDY    25  18  74 CALM      29.94F
RICE LAKE      CLOUDY    26  20  77 E3        29.96F
CHETEK         CLOUDY    26  20  79 E3        29.96S
LADYSMITH      CLOUDY    26  21  79 CALM      29.98R
EAU CLAIRE     MOCLDY    28  16  60 CALM      29.95F
MENOMONIE      CLEAR     27  18  67 E5        29.94F WCI  22
NEW RICHMOND   CLOUDY    24  17  75 E3        29.94F
OSCEOLA        CLOUDY    22  17  83 E3        29.96F
$$

WIZ003>005-009-010-017-018-230800-
NORTH CENTRAL WISCONSIN

CITY           SKY/WX    TMP DP  RH WIND       PRES   REMARKS
MANITOWISH WTR CLOUDY    22  21  94 SW3       29.93F
ARBOR VITAE    CLOUDY    24  21  88 CALM      29.93F
WOODRUFF       CLOUDY    24  21  88 CALM      29.93F
RHINELANDER    CLOUDY    23  21  92 SW7       29.94F WCI  15
EAGLE RIVER    CLOUDY    23  19  83 SW7       29.93F WCI  15
LAND O LAKES   CLOUDY    24  19  84 SW5       29.95F WCI  18
PHILLIPS       CLOUDY    23  20  89 S3        29.94S
TOMAHAWK       CLOUDY    23  20  90 CALM      29.95F
MEDFORD        CLOUDY    25  19  77 S6        29.94F WCI  18
MERRILL        CLOUDY    25  20  83 CALM      29.96F
$$

WIZ029-030-035-036-043>047-230800-
CENTRAL WISCONSIN

CITY           SKY/WX    TMP DP  RH WIND       PRES   REMARKS
WAUSAU         CLOUDY    26  20  77 S9        29.95F WCI  17
MOSINEE        CLOUDY    27  21  80 SE6       29.98F WCI  20
MARSHFIELD     CLOUDY    27  18  69 S9        29.95F WCI  18
STEVENS POINT  CLOUDY    26  19  74 S5        29.99F WCI  20
WAUPACA        CLOUDY    29  24  79 S5        30.03F WCI  24
WAUTOMA        CLOUDY    28  21  75 S5        30.03F WCI  23
WISC RAPIDS    CLOUDY    29  18  63 S7        30.00F WCI  22
CAMP DOUGLAS   CLOUDY    31  17  55 S8        29.99F WCI  23
$$

WIZ011>013-019>022-031-037>040-048>050-230800-
NORTHEAST WISCONSIN

CITY           SKY/WX    TMP DP  RH WIND       PRES   REMARKS
ANTIGO         CLOUDY    24  20  84 SW8       29.95F WCI  15
SHAWANO        CLOUDY    30  22  74 SW5       30.01F WCI  25
OCONTO         CLOUDY    28  19  68 SW7       30.04F WCI  21
STURGEON BAY   CLOUDY    29  21  72 SW14      30.03F WCI  18
GREEN BAY      CLOUDY    28  25  88 SW10      30.04F WCI  19
MANITOWOC      CLOUDY    29  23  78 SW8       30.08  WCI  21
APPLETON       CLOUDY    28  23  80 S8        30.02F WCI  20
CLINTONVILLE   CLOUDY    28  21  74 S6        30.03F WCI  22
OSHKOSH        CLOUDY    29  23  78 S7        30.05F WCI  22
$$

WIZ032>034-041-042-053>061-230800-
SOUTHWEST WISCONSIN

CITY           SKY/WX    TMP DP  RH WIND       PRES   REMARKS
LA CROSSE      CLOUDY    33  18  53 S9        29.98F WCI  25
SPARTA         CLOUDY    32  18  55 S6        29.98F WCI  26
VIROQUA        CLOUDY    31  19  62 S8        29.96F WCI  23
BOSCOBEL       CLOUDY    35  16  45 S8        30.04F WCI  29
PRAIRIE DU CHI CLOUDY    34  15  45 SE6       30.02F WCI  29
PLATTEVILLE    CLOUDY    32  21  65 S10       30.05F WCI  24
$$

WIZ056-057-062-063-064-067-068-230800-
SOUTH CENTRAL WISCONSIN

CITY           SKY/WX    TMP DP  RH WIND       PRES   REMARKS
REEDSBURG      CLOUDY    31  17  55 S6        30.03F WCI  25
BARABOO/DELLS  CLOUDY    31  17  55 S8        30.03F WCI  23
LONE ROCK      CLOUDY    33  18  53 S6        30.05F WCI  28
MINERAL POINT  CLOUDY    32  21  64 S12       30.03F WCI  23
MADISON        CLOUDY    31  18  58 S9        30.07F WCI  23
MIDDLETON      CLOUDY    32  19  59 S6        30.06F WCI  27
WATERTOWN      CLOUDY    31  19  61 S7        30.08F WCI  24
MONROE         CLOUDY    32  21  64 S12       30.07F WCI  23
JANESVILLE     CLOUDY    32  19  59 S7        30.10F WCI  26
$$

WIZ051-052-058>065-066-070>072-230800-
SOUTHEAST WISCONSIN

CITY           SKY/WX    TMP DP  RH WIND       PRES   REMARKS
MILWAUKEE      CLOUDY    32  20  61 SW8       30.11F WCI  25
WAUKESHA       CLOUDY    30  18  59 SW5       30.11F WCI  25
MILWAUKEE/TIMM CLOUDY    32  16  51 SW6       30.11F WCI  26
RACINE         CLOUDY    32  19  58 SW7       30.13F WCI  26
BURLINGTON     CLOUDY    33  25  71 SW7       30.11F WCI  27
KENOSHA        CLOUDY    32  18  56 SW9       30.12F WCI  24
FOND DU LAC    CLOUDY    30  20  66 S8        30.06F WCI  22
SHEBOYGAN      CLOUDY    28  25  88 SW5       30.08F WCI  23
WEST BEND      CLOUDY    30  18  59 SW7       30.08F WCI  23
JUNEAU         CLOUDY    30  18  62 S8        30.08F WCI  22
$$

LSZ147-162-230800-
LAKE SUPERIOR

STATION/POSITION TIME  TEMP    WIND        PRES    WAVE
                       AIR SEA DIR/SP/G            HT/PER
                 (UTC) (F)     (DEG/KT/KT) (MB)    (FT/S)
DEVILS ISLAND    0700   28     230/ 16/ 20 1014.9F
SAXON HARBOR     0640   27     190/  6/ 11 1014.6F
$$

LMZ867-665-643>646-230800-
LAKE MICHIGAN

STATION/POSITION TIME  TEMP    WIND        PRES    WAVE
                       AIR SEA DIR/SP/G            HT/PER
                 (UTC) (F)     (DEG/KT/KT) (MB)    (FT/S)
N MID LAKE BUOY  0650   34 47  230/ 19/ 23 1017.3F   4/ 5
NORTHPORT PIER   0658   31     240/  7/ 12 1016.6F
KEWAUNEE LAKESHO 0654   29     230/  7/ 11 1017.3F
SHEBOYGAN LAKESH 0700   29     200/  7/  8 1019.5F
PORT WASHINGTON  0640   32     240/  4/  8 1020.3F
MILWAUKEE LAKESH 0700   33     220/  8/  9   N/A
S MID LAKE BUOY  0650   36 47  280/ 16/ 19 1021.1F   3/ 4
KENOSHA   LAKESH 0700   32     220/  7/ 10 1020.3
$$

TC  - TEMPERATURE IN CELSIUS
VSB - VISIBILITY IN STATUTE MILES
WCI - WIND CHILL INDEX
HX  - HEAT INDEX





USA.gov is the U.S. government's official web portal to all federal, state and local government web resources and services.